Tracking 29892 objects as of 21-Nov-2024
HD Live streaming from Space Station
objects crossing your sky now

COSMOS 1937

Track COSMOS 1937 now!
10-day predictions
COSMOS 1937 is classified as:


NORAD ID: 19038
Int'l Code: 1988-029A
Perigee: 761.5 km
Apogee: 797.3 km
Inclination: 74.0 °
Period: 100.3 minutes
Semi major axis: 7150 km
RCS: 2.2121 m2 (large)
Launch date: April 5, 1988
Source: Commonwealth of Independent States (former USSR) (CIS)
Launch site: PLESETSK MISSILE AND SPACE COMPLEX (PKMTR)
Your satellite tracking list
Your tracking list is empty




NASA's NSSDC Master Catalog

Two Line Element Set (TLE):
1 19038U 88029A   24325.77497552  .00000393  00000-0  14420-3 0  9999
2 19038  74.0464  76.7061 0024997 302.6755 219.4068 14.35842249917430
Source of the keplerian elements: AFSPC